User: anonymous   Login
Location: Unspecified
(0.0000°N, 0.0000°E)
Time: 21:54:30
(UTC+00:00)
Language:

Kosmos-2100 - Orbit

View from above orbital plane
View from above orbital plane
View from above satellite
View from above satellite

Ground track
Ground track

The orbit data is extracted from the following two-line orbital elements,

1 20804U 90083A   17082.68865463 +.00000040 +00000-0 +26853-4 0  9990
2 20804 082.9401 144.6484 0035752 317.5773 155.3265 13.74300134329980
Epoch (UTC): 23 March 2017 16:31:39
Eccentricity: 0.0035752
inclination: 82.9401°
perigee height: 958 km
apogee height: 1010 km
right ascension of ascending node: 144.6484°
argument of perigee: 317.5773°
revolutions per day: 13.74300134
mean anomaly at epoch: 155.3265°
orbit number at epoch: 32998

The dashed part of the orbit path shows where the satellite is in the earth's shadow,  

DLR